User: anonymous   Login
Location: Unspecified
(0.0000°N, 0.0000°E)
Time: 08:39:17
(UTC+00:00)
Language:

COSMOS 2400 - Orbit

View from above orbital plane
View from above orbital plane
View from above satellite
View from above satellite

Ground track
Ground track

The orbit data is extracted from the following two-line orbital elements,

1 27868U 03037A   24114.21522737  .00000024  00000-0  10065-3 0  9996
2 27868  82.4658 102.0481 0021038 336.6221  23.3901 12.45164414939943
Epoch (UTC): 23 April 2024 05:09:55
Eccentricity: 0.0021038
inclination: 82.4658°
perigee height: 1468 km
apogee height: 1501 km
right ascension of ascending node: 102.0481°
argument of perigee: 336.6221°
revolutions per day: 12.45164414
mean anomaly at epoch: 23.3901°
orbit number at epoch: 93994

The dashed part of the orbit path shows where the satellite is in the earth's shadow,  

DLR